Date String (YYYY-MM-DD hh:mm:ss) UTC,Instrument flags,Ambient pressure (hPa),Sample flow (lpm),Bypass flow (lpm),Sample temperature (°C),Ambient temperature (°C),ASC tube jacket temperature (°C),LED temperature (°C),Box temperature (°C),Sample RH (%),Span deviation,Mass concentration (μg/m³),Mass concentration (μg/m³),Mass concentration (μg/m³)
DateTimeUTC,F1_M11,P_M11,Q1_M11,Q2_M11,T1_M11,T2_M11,T3_M11,T4_M11,T5_M11,U1_M11,ZSPAN_M11,X0_M11,X2_M11,X1_M11
2022-07-06 14:00:00,,0829.7,4.99,0.00,32.8,29.0,00.0,40.6,33.0,34.8,-001.9,0010.65,0006.04,0005.02
2022-07-06 14:01:00,,0829.6,5.00,0.00,32.9,29.1,00.0,40.6,33.0,34.5,-001.9,0010.74,0006.08,0005.06
2022-07-06 14:02:00,,0829.6,5.00,0.00,32.9,29.1,00.0,40.6,33.0,34.2,-002.0,0010.80,0006.14,0005.11
2022-07-06 14:03:00,,0829.6,5.01,0.00,32.9,29.2,00.0,40.7,33.0,34.1,-002.3,0010.89,0006.19,0005.16
2022-07-06 14:04:00,,0829.6,5.00,0.00,32.8,29.2,00.0,40.7,33.0,34.1,-002.3,0011.15,0006.27,0005.23
2022-07-06 14:05:00,,0829.8,5.01,0.00,32.8,29.3,00.0,40.7,33.0,34.3,-001.9,0012.44,0006.29,0005.27
2022-07-06 14:06:00,,0829.6,5.00,0.00,32.7,29.3,00.0,40.8,33.0,34.4,-001.8,0012.82,0006.30,0005.29
2022-07-06 14:07:00,,0829.6,5.00,0.00,32.7,29.4,00.0,40.8,33.0,34.9,-001.8,0012.91,0006.33,0005.29
2022-07-06 14:08:00,,0829.7,5.00,0.00,32.7,29.4,00.0,40.8,33.1,34.6,-001.8,0012.84,0006.34,0005.30
2022-07-06 14:09:00,,0829.7,4.99,0.00,32.8,29.2,00.0,40.8,33.1,34.5,-002.0,0012.49,0006.32,0005.31
2022-07-06 14:10:00,,0829.7,4.99,0.00,32.7,28.5,00.0,40.7,33.0,34.3,-001.9,0012.45,0006.30,0005.33
2022-07-06 14:11:00,,0829.8,5.01,0.00,32.7,28.1,00.0,40.7,32.9,34.6,-001.7,0012.48,0006.34,0005.38
2022-07-06 14:12:00,,0829.7,5.00,0.00,32.5,28.0,00.0,40.7,32.7,35.0,-001.9,0012.48,0006.38,0005.41
2022-07-06 14:13:00,,0829.7,4.98,0.00,32.5,28.1,00.0,40.7,32.7,35.4,-001.9,0012.51,0006.39,0005.41
2022-07-06 14:14:00,,0829.7,5.01,0.00,32.7,28.2,00.0,40.7,32.9,35.7,-001.6,0012.58,0006.34,0005.36
2022-07-06 14:15:00,,0829.7,4.99,0.00,33.0,28.3,00.0,40.6,33.0,35.0,-001.4,0012.43,0006.21,0005.26
2022-07-06 14:16:00,,0829.8,5.00,0.00,33.2,28.4,00.0,40.7,33.1,34.4,-000.3,0011.13,0006.11,0005.16
2022-07-06 14:17:00,,0829.8,5.01,0.00,33.3,28.5,00.0,40.7,33.0,33.7,-000.5,0010.45,0006.02,0005.08
2022-07-06 14:18:00,,0829.8,5.00,0.00,33.3,28.7,00.0,40.7,33.0,33.7,-000.6,0010.40,0005.92,0005.00
2022-07-06 14:19:00,,0829.8,5.00,0.00,33.3,28.7,00.0,40.8,33.0,33.7,-000.4,0010.37,0005.83,0004.93
2022-07-06 14:20:00,,0829.8,5.00,0.00,33.3,28.8,00.0,40.9,33.0,34.0,-000.2,0010.22,0005.76,0004.86
2022-07-06 14:21:00,,0829.8,5.00,0.00,33.2,28.9,00.0,40.9,32.9,34.2,-000.1,0010.10,0005.68,0004.79
2022-07-06 14:22:00,,0829.9,5.00,0.00,33.1,29.0,00.0,40.9,32.9,34.3,-000.3,0010.02,0005.65,0004.74
2022-07-06 14:23:00,,0829.8,5.00,0.00,33.0,29.0,00.0,41.0,32.9,34.2,-000.6,0010.30,0005.59,0004.69
2022-07-06 14:24:00,,0829.8,5.00,0.00,33.0,29.1,00.0,41.0,33.0,34.3,-000.4,0010.53,0005.63,0004.68
2022-07-06 14:25:00,,0829.8,5.01,0.00,32.9,29.1,00.0,41.0,33.0,34.9,-000.4,0010.56,0005.69,0004.69
2022-07-06 14:26:00,,0829.8,4.99,0.00,32.9,29.2,00.0,41.0,33.0,34.8,-000.4,0010.62,0005.73,0004.71
2022-07-06 14:27:00,,0829.8,5.00,0.00,33.0,29.2,00.0,41.0,33.1,34.1,-000.6,0010.54,0005.72,0004.72
2022-07-06 14:28:00,,0829.8,4.99,0.00,33.0,29.3,00.0,41.0,33.1,34.0,-000.7,0010.58,0005.76,0004.72
2022-07-06 14:29:00,,0829.8,5.00,0.00,33.0,29.3,00.0,41.0,33.1,33.9,-001.1,0010.78,0005.75,0004.70
2022-07-06 14:30:00,,0829.8,5.01,0.00,32.9,29.3,00.0,41.0,33.0,33.9,-001.0,0010.74,0005.72,0004.68
2022-07-06 14:31:00,,0829.8,4.99,0.00,32.9,29.3,00.0,41.0,33.0,34.0,-000.6,0010.62,0005.71,0004.65
2022-07-06 14:32:00,,0829.8,5.00,0.00,32.8,29.4,00.0,41.0,33.0,34.1,-000.4,0010.65,0005.68,0004.64
2022-07-06 14:33:00,,0829.8,4.99,0.00,32.8,29.4,00.0,41.0,33.0,34.0,-000.3,0010.44,0005.60,0004.62
2022-07-06 14:34:00,,0829.8,5.00,0.00,32.7,29.4,00.0,41.0,33.0,34.4,-000.5,0009.97,0005.54,0004.59
2022-07-06 14:35:00,,0829.8,5.01,0.00,32.6,29.4,00.0,41.0,33.0,34.5,-000.5,0009.72,0005.46,0004.55
2022-07-06 14:36:00,,0829.8,5.00,0.00,32.6,29.4,00.0,41.0,33.0,35.0,-000.9,0009.56,0005.37,0004.52
2022-07-06 14:37:00,,0829.8,4.99,0.00,32.6,29.5,00.0,41.0,33.1,35.1,-001.2,0009.43,0005.34,0004.50
2022-07-06 14:38:00,,0829.8,5.01,0.00,32.8,29.5,00.0,41.0,33.2,34.5,-001.6,0009.42,0005.34,0004.50
2022-07-06 14:39:00,,0829.8,5.00,0.00,32.8,29.5,00.0,41.0,33.2,34.3,-002.0,0009.33,0005.29,0004.50
2022-07-06 14:40:00,,0829.8,4.99,0.00,32.8,29.5,00.0,40.9,33.1,34.3,-002.0,0008.95,0005.26,0004.52
2022-07-06 14:41:00,,0829.8,4.99,0.00,32.8,28.8,00.0,40.9,33.1,34.1,-001.7,0008.98,0005.31,0004.55
2022-07-06 14:42:00,,0829.8,5.01,0.00,32.8,28.3,00.0,40.8,33.0,34.4,-002.0,0009.10,0005.36,0004.59
2022-07-06 14:43:00,,0829.7,4.99,0.00,32.7,28.1,00.0,40.8,32.9,34.6,-002.5,0009.81,0005.40,0004.61
2022-07-06 14:44:00,,0829.7,5.00,0.00,32.5,28.1,00.0,40.8,32.7,35.1,-002.7,0010.22,0005.46,0004.63
2022-07-06 14:45:00,,0829.8,5.01,0.00,32.6,28.2,00.0,40.8,32.8,35.5,-002.7,0010.36,0005.49,0004.63
2022-07-06 14:46:00,,0829.7,5.00,0.00,32.8,28.3,00.0,40.8,33.0,35.2,-002.6,0010.56,0005.53,0004.63
2022-07-06 14:47:00,,0829.7,5.00,0.00,33.0,28.4,00.0,40.7,33.0,34.4,-002.1,0010.57,0005.55,0004.61
2022-07-06 14:48:00,,0829.7,5.00,0.00,33.1,28.5,00.0,40.8,33.0,34.1,-001.6,0010.59,0005.54,0004.59
2022-07-06 14:49:00,,0829.7,4.99,0.00,33.1,28.7,00.0,40.8,33.0,34.1,-001.4,0010.57,0005.52,0004.59
2022-07-06 14:50:00,,0829.7,4.99,0.00,33.1,28.8,00.0,40.8,32.9,34.2,-000.7,0010.67,0005.56,0004.60
2022-07-06 14:51:00,,0829.7,5.00,0.00,33.0,28.8,00.0,40.9,32.9,34.3,-000.5,0010.96,0005.63,0004.60
2022-07-06 14:52:00,,0829.7,5.01,0.00,33.0,28.9,00.0,40.9,32.9,34.4,-000.5,0011.00,0005.65,0004.61
2022-07-06 14:53:00,,0829.7,5.00,0.00,32.9,29.0,00.0,40.9,32.9,34.6,-000.5,0011.20,0005.66,0004.62
2022-07-06 14:54:00,,0829.7,5.01,0.00,32.8,29.1,00.0,40.9,32.9,34.9,0000.2,0010.74,0005.68,0004.64
2022-07-06 14:55:00,,0829.7,5.00,0.00,32.8,29.1,00.0,41.0,32.9,35.2,0000.7,0010.46,0005.68,0004.67
2022-07-06 14:56:00,,0829.7,5.01,0.00,32.9,29.2,00.0,41.0,33.0,35.2,0000.1,0010.81,0005.65,0004.68
2022-07-06 14:57:00,,0829.8,5.00,0.00,33.1,29.2,00.0,41.0,33.1,34.6,0000.0,0010.95,0005.64,0004.70
2022-07-06 14:58:00,,0829.8,5.00,0.00,33.1,29.3,00.0,41.0,33.1,34.6,0000.2,0011.32,0005.62,0004.75
2022-07-06 14:59:00,,0829.7,5.00,0.00,33.1,29.3,00.0,41.0,33.1,34.8,-000.4,0011.61,0005.71,0004.81
